Location: Bergnershof
(48.9468°N, 10.9431°E)
Time: 09:59:26
(UTC+00:00)

Cosmos 1689 Rocket - Pass Details

Date: 03 March 2021
Orbit: 350 x 361 km, 97.5° (Epoch: 12 April)

Event Time Altitude Azimuth Distance (km) Brightness Sun altitude
Rises 18:52:15 0° 2° (N) 2,210 6.0 -18.7°
Reaches altitude 10° 18:54:23 10° 348° (NNW) 1,361 5.1 -19.0°
Maximum altitude 18:56:48 24° 291° (WNW) 812 4.5 -19.4°
Drops below altitude 10° 18:59:12 10° 235° (SW) 1,357 5.4 -19.8°
Sets 19:01:20 0° 221° (SW) 2,203 6.3 -20.1°
